Overview Statistics Trail Chart Weather Telemetry Raw packets
 

This is the latest recevied weather packets stored in our database for station/object N9BLE. If no packets are shown the sender has not sent any weather packets the latest 10 day(s).

<< 16 17 18 19 20 21 22 >>
Time Temp. Humidity Pressure Rain* Wind** Luminosity Snow
1777926912 26.67° C 29% 1002.7 hPa 0 mm - 689 W/m² -
1777926609 25.56° C 37% 1002.5 hPa 0 mm - 201 W/m² -
1777926304 26.11° C 36% 1002.9 hPa 0 mm - 196 W/m² -
1777926001 25.56° C 35% 1002.7 hPa 0 mm - 156 W/m² -
1777925699 25.56° C 36% 1002.9 hPa 0 mm - 130 W/m² -
1777925396 25.56° C 33% 1003 hPa 0 mm - 130 W/m² -
1777925093 26.11° C 35% 1002.8 hPa 0 mm - 175 W/m² -
1777924789 27.22° C 29% 1002.8 hPa 0 mm - 207 W/m² -
1777924485 27.22° C 33% 1002.7 hPa 0 mm - 740 W/m² -
1777924182 27.22° C 32% 1003.1 hPa 0 mm - 209 W/m² -
1777923878 26.67° C 32% 1003 hPa 0 mm - 260 W/m² -
1777923574 27.78° C 31% 1003 hPa 0 mm - 217 W/m² -
1777923271 27.22° C 31% 1003 hPa 0 mm - 695 W/m² -
1777922970 25.56° C 30% 1003.3 hPa 0 mm - 716 W/m² -
1777922667 26.11° C 32% 1003.2 hPa 0 mm - 167 W/m² -
1777922366 27.22° C 31% 1003.5 hPa 0 mm - 305 W/m² -
1777922064 26.67° C 30% 1003.5 hPa 0 mm - 901 W/m² -
1777921759 25° C 33% 1003.5 hPa 0 mm - 236 W/m² -
1777921454 25° C 32% 1003.5 hPa 0 mm - 167 W/m² -
1777921151 26.11° C 32% 1003.5 hPa 0 mm - 166 W/m² -
1777920849 26.11° C 30% 1003.6 hPa 0 mm - 422 W/m² -
1777920544 26.11° C 32% 1003.7 hPa 0 mm - 876 W/m² -
1777920240 27.22° C 34% 1003.6 hPa 0 mm - 802 W/m² -
1777919936 26.67° C 29% 1003.6 hPa 0 mm - 760 W/m² -
1777919634 26.67° C 33% 1003.6 hPa 0 mm - 787 W/m² -

* Rain latest hour (hover to see other rain measurements)
** Current wind speed in m/s (hover to see current wind gust speed)